THOR ABLESTAR DEB, 134

Orbit data source: Space-Track

THOR ABLESTAR DEB, 134 is space debris in LEO originally from a launch on Thu, 29 Jun 1961 UTC launched from the Air Force Eastern Test Range (AFETR). Debris objects in space refer to the collection of defunct objects orbiting the Earth. Examples of debris include non-operational satellites, rocket bodies, and fragments generated from explosions, collisions, or faulty payload assembly.

Loading next visibility...
Identifier
134, 1961-015U
Orbit
LEO
Country
Flag of USUS
Related business
Manufacturer
Unknown
Mission
Spacecraft
Bus & Motor
Unknown
Mass
Unknown
Launch date (UTC)
1961-06-29 (64 years ago)
Launch vehicle
Unknown
Launch site
Air Force Eastern Test Range (AFETR)
Object type
Payload
Rocket body
Debris
Shape & HBR
Unknown
Radar Cross Section
1.600 m², Large (>1 m²)

Expand to show TLE details & history
Last TLE update: 9 hours ago

TLE from 9 hours ago
0 THOR ABLESTAR DEB
1 00134U 61015U   25259.58680568  .00000030  00000-0  73895-4 0  9999
2 00134  66.8829   0.3728 0078036  24.8388 335.6419 13.97641067267466
Epoch: 2025-09-16T14:05Z
TLE epoch observation values (Epoch: 2025-09-16T14:05:00.01Z)
Latitude
-0.00003°
Longitude
153.34777°
Altitude
852.381 km
Speed
7.453 km/s
True Right ascension
00h 01m 29s
True Declination
0° 00' 00"
Sunlit
Object was in full shadow at epoch
Visualization orbit readout
Latitude
Unknown
Longitude
Unknown
Altitude
Unknown
Speed
Unknown
Apparent Right ascension
Unknown
Apparent Declination
Unknown
Sunlit
N/A
Visualization observer readout
Local Sidereal Time
16:11:50
Azimuth
Unknown
Elevation
Unknown
Doppler factor
Unknown
Orbital elements
Apogee altitude
957.152 km
Perigee altitude
843.555 km
Semi-major axis
7,278.491 km
Eccentricity
0.0078
Inclination
66.8829°
RAAN
0.3728°
Arg. of periapsis
24.8388°
True anomaly
335.26978°
Mean anomaly
335.6419°
Eccentric anomaly
335.45617°
Mean motion
3.49527 °/min
Orbital period
103 mins
BSTAR
0.000073895
Loading maneuver chart data...
Computing Atmospheric mass density...

Documentation

Showing up to 5 results
|